Year,Month,Day,Hour,Minute,Value (Times are PST for temperature in C)
2010,08,17,00,00,19.80
2010,08,17,00,01,19.80
2010,08,17,00,02,19.80
2010,08,17,00,03,19.70
2010,08,17,00,04,19.70
2010,08,17,00,05,19.60
2010,08,17,00,06,19.60
2010,08,17,00,07,19.60
2010,08,17,00,08,19.50
2010,08,17,00,09,19.50
2010,08,17,00,10,19.40
2010,08,17,00,11,19.40
2010,08,17,00,12,19.40
2010,08,17,00,13,19.30
2010,08,17,00,14,19.30
2010,08,17,00,15,19.30
2010,08,17,00,16,19.30
2010,08,17,00,17,19.30
2010,08,17,00,18,19.30
2010,08,17,00,19,19.20
2010,08,17,00,20,19.20
2010,08,17,00,21,19.20
2010,08,17,00,22,19.20
2010,08,17,00,23,19.20
2010,08,17,00,24,19.20
2010,08,17,00,25,19.20
2010,08,17,00,26,19.20
2010,08,17,00,27,19.20
2010,08,17,00,28,19.20
2010,08,17,00,29,19.20
2010,08,17,00,30,19.20
2010,08,17,00,31,19.20
2010,08,17,00,32,19.20
2010,08,17,00,33,19.20
2010,08,17,00,34,19.20
2010,08,17,00,35,19.10
2010,08,17,00,36,19.10
2010,08,17,00,37,19.10
2010,08,17,00,38,19.10
2010,08,17,00,39,19.10
2010,08,17,00,40,19.10
2010,08,17,00,41,19.10
2010,08,17,00,42,19.10
2010,08,17,00,43,19.10
2010,08,17,00,44,19.10
2010,08,17,00,45,19.10
2010,08,17,00,46,19.00
2010,08,17,00,47,19.00
2010,08,17,00,48,19.00
2010,08,17,00,49,19.00
2010,08,17,00,50,19.00
2010,08,17,00,51,19.00
2010,08,17,00,52,18.90
2010,08,17,00,53,18.90
2010,08,17,00,54,18.90
2010,08,17,00,55,18.90
2010,08,17,00,56,18.90
2010,08,17,00,57,18.90
2010,08,17,00,58,18.90
2010,08,17,00,59,18.90
2010,08,17,01,00,18.80
2010,08,17,01,01,18.80
2010,08,17,01,02,18.80
2010,08,17,01,03,18.80
2010,08,17,01,04,18.80
2010,08,17,01,05,18.80
2010,08,17,01,06,18.80
2010,08,17,01,07,18.70
2010,08,17,01,08,18.70
2010,08,17,01,09,18.70
2010,08,17,01,10,18.70
2010,08,17,01,11,18.70
2010,08,17,01,12,18.70
2010,08,17,01,13,18.70
2010,08,17,01,14,18.60
2010,08,17,01,15,18.60
2010,08,17,01,16,18.60
2010,08,17,01,17,18.60
2010,08,17,01,18,18.60
2010,08,17,01,19,18.60
2010,08,17,01,20,18.60
2010,08,17,01,21,18.60
2010,08,17,01,22,18.60
2010,08,17,01,23,18.60
2010,08,17,01,24,18.50
2010,08,17,01,25,18.50
2010,08,17,01,26,18.50
2010,08,17,01,27,18.50
2010,08,17,01,28,18.50
2010,08,17,01,29,18.50
2010,08,17,01,30,18.50
2010,08,17,01,31,18.50
2010,08,17,01,32,18.40
2010,08,17,01,33,18.40
2010,08,17,01,34,18.40
2010,08,17,01,35,18.40
2010,08,17,01,36,18.40
2010,08,17,01,37,18.40
2010,08,17,01,38,18.40
2010,08,17,01,39,18.40
2010,08,17,01,40,18.40
2010,08,17,01,41,18.40
2010,08,17,01,42,18.30
2010,08,17,01,43,18.30
2010,08,17,01,44,18.30
2010,08,17,01,45,18.30
2010,08,17,01,46,18.30
2010,08,17,01,47,18.30
2010,08,17,01,48,18.30
2010,08,17,01,49,18.30
2010,08,17,01,50,18.30
2010,08,17,01,51,18.30
2010,08,17,01,52,18.30
2010,08,17,01,53,18.30
2010,08,17,01,54,18.20
2010,08,17,01,55,18.20
2010,08,17,01,56,18.20
2010,08,17,01,57,18.20
2010,08,17,01,58,18.20
2010,08,17,01,59,18.20
2010,08,17,02,00,18.20
2010,08,17,02,01,18.20
2010,08,17,02,02,18.20
2010,08,17,02,03,18.10
2010,08,17,02,04,18.10
2010,08,17,02,05,18.10
2010,08,17,02,06,18.10
2010,08,17,02,07,18.10
2010,08,17,02,08,18.10
2010,08,17,02,09,18.00
2010,08,17,02,10,18.00
2010,08,17,02,11,18.00
2010,08,17,02,12,18.00
2010,08,17,02,13,17.90
2010,08,17,02,14,17.90
2010,08,17,02,15,17.90
2010,08,17,02,16,17.90
2010,08,17,02,17,17.90
2010,08,17,02,18,17.90
2010,08,17,02,19,17.90
2010,08,17,02,20,17.90
2010,08,17,02,21,17.80
2010,08,17,02,22,17.80
2010,08,17,02,23,17.80
2010,08,17,02,24,17.80
2010,08,17,02,25,17.80
2010,08,17,02,26,17.80
2010,08,17,02,27,17.80
2010,08,17,02,28,17.70
2010,08,17,02,29,17.70
2010,08,17,02,30,17.70
2010,08,17,02,31,17.70
2010,08,17,02,32,17.70
2010,08,17,02,33,17.60
2010,08,17,02,34,17.60
2010,08,17,02,35,17.60
2010,08,17,02,36,17.50
2010,08,17,02,37,17.50
2010,08,17,02,38,17.50
2010,08,17,02,39,17.40
2010,08,17,02,40,17.40
2010,08,17,02,41,17.40
2010,08,17,02,42,17.40
2010,08,17,02,43,17.40
2010,08,17,02,44,17.40
2010,08,17,02,45,17.30
2010,08,17,02,46,17.30
2010,08,17,02,47,17.30
2010,08,17,02,48,17.30
2010,08,17,02,49,17.30
2010,08,17,02,50,17.20
2010,08,17,02,51,17.10
2010,08,17,02,52,17.00
2010,08,17,02,53,16.90
2010,08,17,02,54,16.80
2010,08,17,02,55,16.70
2010,08,17,02,56,16.60
2010,08,17,02,57,16.50
2010,08,17,02,58,16.40
2010,08,17,02,59,16.40
2010,08,17,03,00,16.30
2010,08,17,03,01,16.20
2010,08,17,03,02,16.20
2010,08,17,03,03,16.10
2010,08,17,03,04,16.00
2010,08,17,03,05,15.90
2010,08,17,03,06,15.80
2010,08,17,03,07,15.80
2010,08,17,03,08,15.70
2010,08,17,03,09,15.60
2010,08,17,03,10,15.60
2010,08,17,03,11,15.50
2010,08,17,03,12,15.40
2010,08,17,03,13,15.40
2010,08,17,03,14,15.30
2010,08,17,03,15,15.20
2010,08,17,03,16,15.10
2010,08,17,03,17,15.00
2010,08,17,03,18,15.00
2010,08,17,03,19,15.00
2010,08,17,03,20,15.00
2010,08,17,03,21,15.00
2010,08,17,03,22,14.90
2010,08,17,03,23,14.80
2010,08,17,03,24,14.80
2010,08,17,03,25,14.70
2010,08,17,03,26,14.70
2010,08,17,03,27,14.60
2010,08,17,03,28,14.60
2010,08,17,03,29,14.60
2010,08,17,03,30,14.50
2010,08,17,03,31,14.50
2010,08,17,03,32,14.40
2010,08,17,03,33,14.40
2010,08,17,03,34,14.40
2010,08,17,03,35,14.30
2010,08,17,03,36,14.30
2010,08,17,03,37,14.30
2010,08,17,03,38,14.30
2010,08,17,03,39,14.30
2010,08,17,03,40,14.20
2010,08,17,03,41,14.20
2010,08,17,03,42,14.20
2010,08,17,03,43,14.20
2010,08,17,03,44,14.20
2010,08,17,03,45,14.20
2010,08,17,03,46,14.20
2010,08,17,03,47,14.20
2010,08,17,03,48,14.10
2010,08,17,03,49,14.10
2010,08,17,03,50,14.10
2010,08,17,03,51,14.10
2010,08,17,03,52,14.10
2010,08,17,03,53,14.10
2010,08,17,03,54,14.10
2010,08,17,03,55,14.10
2010,08,17,03,56,14.20
2010,08,17,03,57,14.20
2010,08,17,03,58,14.20
2010,08,17,03,59,14.20
2010,08,17,04,00,14.20
2010,08,17,04,01,14.20
2010,08,17,04,02,14.20
2010,08,17,04,03,14.20
2010,08,17,04,04,14.20
2010,08,17,04,05,14.20
2010,08,17,04,06,14.30
2010,08,17,04,07,14.30
2010,08,17,04,08,14.30
2010,08,17,04,09,14.30
2010,08,17,04,10,14.30
2010,08,17,04,11,14.40
2010,08,17,04,12,14.40
2010,08,17,04,13,14.40
2010,08,17,04,14,14.40
2010,08,17,04,15,14.40
2010,08,17,04,16,14.40
2010,08,17,04,17,14.50
2010,08,17,04,18,14.50
2010,08,17,04,19,14.50
2010,08,17,04,20,14.50
2010,08,17,04,21,14.50
2010,08,17,04,22,14.60
2010,08,17,04,23,14.60
2010,08,17,04,24,14.60
2010,08,17,04,25,14.60
2010,08,17,04,26,14.60
2010,08,17,04,27,14.70
2010,08,17,04,28,14.70
2010,08,17,04,29,14.70
2010,08,17,04,30,14.70
2010,08,17,04,31,14.70
2010,08,17,04,32,14.70
2010,08,17,04,33,14.70
2010,08,17,04,34,14.80
2010,08,17,04,35,14.80
2010,08,17,04,36,14.80
2010,08,17,04,37,14.80
2010,08,17,04,38,14.80
2010,08,17,04,39,14.80
2010,08,17,04,40,14.80
2010,08,17,04,41,14.80
2010,08,17,04,42,14.80
2010,08,17,04,43,14.80
2010,08,17,04,44,14.80
2010,08,17,04,45,14.80
2010,08,17,04,46,14.80
2010,08,17,04,47,14.80
2010,08,17,04,48,14.80
2010,08,17,04,49,14.80
2010,08,17,04,50,14.80
2010,08,17,04,51,14.80
2010,08,17,04,52,14.70
2010,08,17,04,53,14.70
2010,08,17,04,54,14.70
2010,08,17,04,55,14.70
2010,08,17,04,56,14.70
2010,08,17,04,57,14.70
2010,08,17,04,58,14.70
2010,08,17,04,59,14.70
2010,08,17,05,00,14.60
2010,08,17,05,01,14.60
2010,08,17,05,02,14.60
2010,08,17,05,03,14.60
2010,08,17,05,04,14.60
2010,08,17,05,05,14.60
2010,08,17,05,06,14.50
2010,08,17,05,07,14.50
2010,08,17,05,08,14.40
2010,08,17,05,09,14.40
2010,08,17,05,10,14.40
2010,08,17,05,11,14.40
2010,08,17,05,12,14.30
2010,08,17,05,13,14.30
2010,08,17,05,14,14.30
2010,08,17,05,15,14.30
2010,08,17,05,16,14.30
2010,08,17,05,17,14.20
2010,08,17,05,18,14.20
2010,08,17,05,19,14.20
2010,08,17,05,20,14.20
2010,08,17,05,21,14.20
2010,08,17,05,22,14.20
2010,08,17,05,23,14.20
2010,08,17,05,24,14.20
2010,08,17,05,25,14.10
2010,08,17,05,26,14.10
2010,08,17,05,27,14.10
2010,08,17,05,28,14.10
2010,08,17,05,29,14.10
2010,08,17,05,30,14.10
2010,08,17,05,31,14.10
2010,08,17,05,32,14.10
2010,08,17,05,33,14.10
2010,08,17,05,34,14.10
2010,08,17,05,35,14.20
2010,08,17,05,36,14.10
2010,08,17,05,37,14.10
2010,08,17,05,38,14.10
2010,08,17,05,39,14.10
2010,08,17,05,40,14.20
2010,08,17,05,41,14.10
2010,08,17,05,42,14.10
2010,08,17,05,43,14.10
2010,08,17,05,44,14.10
2010,08,17,05,45,14.10
2010,08,17,05,46,14.10
2010,08,17,05,47,14.10
2010,08,17,05,48,14.10
2010,08,17,05,49,14.10
2010,08,17,05,50,14.10
2010,08,17,05,51,14.10
2010,08,17,05,52,14.10
2010,08,17,05,53,14.10
2010,08,17,05,54,14.10
2010,08,17,05,55,14.20
2010,08,17,05,56,14.20
2010,08,17,05,57,14.20
2010,08,17,05,58,14.20
2010,08,17,05,59,14.20
2010,08,17,06,00,14.20
2010,08,17,06,01,14.20
2010,08,17,06,02,14.20
2010,08,17,06,03,14.20
2010,08,17,06,04,14.20
2010,08,17,06,05,14.20
2010,08,17,06,06,14.20
2010,08,17,06,07,14.20
2010,08,17,06,08,14.20
2010,08,17,06,09,14.20
2010,08,17,06,10,14.20
2010,08,17,06,11,14.20
2010,08,17,06,12,14.20
2010,08,17,06,13,14.10
2010,08,17,06,14,14.10
2010,08,17,06,15,14.10
2010,08,17,06,16,14.10
2010,08,17,06,17,14.10
2010,08,17,06,18,14.10
2010,08,17,06,19,14.10
2010,08,17,06,20,14.10
2010,08,17,06,21,14.10
2010,08,17,06,22,14.10
2010,08,17,06,23,14.10
2010,08,17,06,24,14.10
2010,08,17,06,25,14.10
2010,08,17,06,26,14.10
2010,08,17,06,27,14.10
2010,08,17,06,28,14.10
2010,08,17,06,29,14.10
2010,08,17,06,30,14.10
2010,08,17,06,31,14.10
2010,08,17,06,32,14.10
2010,08,17,06,33,14.10
2010,08,17,06,34,14.10
2010,08,17,06,35,14.10
2010,08,17,06,36,14.10
2010,08,17,06,37,14.10
2010,08,17,06,38,14.10
2010,08,17,06,39,14.20
2010,08,17,06,40,14.20
2010,08,17,06,41,14.20
2010,08,17,06,42,14.20
2010,08,17,06,43,14.20
2010,08,17,06,44,14.20
2010,08,17,06,45,14.20
2010,08,17,06,46,14.20
2010,08,17,06,47,14.20
2010,08,17,06,48,14.20
2010,08,17,06,49,14.20
2010,08,17,06,50,14.20
2010,08,17,06,51,14.20
2010,08,17,06,52,14.10
2010,08,17,06,53,14.10
2010,08,17,06,54,14.10
2010,08,17,06,55,14.10
2010,08,17,06,56,14.10
2010,08,17,06,57,14.10
2010,08,17,06,58,14.10
2010,08,17,06,59,14.10
2010,08,17,07,00,14.10
2010,08,17,07,01,14.10
2010,08,17,07,02,14.10
2010,08,17,07,03,14.10
2010,08,17,07,04,14.10
2010,08,17,07,05,14.10
2010,08,17,07,06,14.20
2010,08,17,07,07,14.20
2010,08,17,07,08,14.20
2010,08,17,07,09,14.20
2010,08,17,07,10,14.20
2010,08,17,07,11,14.20
2010,08,17,07,12,14.20
2010,08,17,07,13,14.20
2010,08,17,07,14,14.20
2010,08,17,07,15,14.30
2010,08,17,07,16,14.30
2010,08,17,07,17,14.30
2010,08,17,07,18,14.30
2010,08,17,07,19,14.30
2010,08,17,07,20,14.30
2010,08,17,07,21,14.30
2010,08,17,07,22,14.30
2010,08,17,07,23,14.30
2010,08,17,07,24,14.30
2010,08,17,07,25,14.40
2010,08,17,07,26,14.40
2010,08,17,07,27,14.40
2010,08,17,07,28,14.40
2010,08,17,07,29,14.40
2010,08,17,07,30,14.40
2010,08,17,07,31,14.40
2010,08,17,07,32,14.40
2010,08,17,07,33,14.40
2010,08,17,07,34,14.40
2010,08,17,07,35,14.40
2010,08,17,07,36,14.40
2010,08,17,07,37,14.40
2010,08,17,07,38,14.40
2010,08,17,07,39,14.50
2010,08,17,07,40,14.50
2010,08,17,07,41,14.50
2010,08,17,07,42,14.50
2010,08,17,07,43,14.50
2010,08,17,07,44,14.50
2010,08,17,07,45,14.60
2010,08,17,07,46,14.60
2010,08,17,07,47,14.60
2010,08,17,07,48,14.60
2010,08,17,07,49,14.70
2010,08,17,07,50,14.70
2010,08,17,07,51,14.80
2010,08,17,07,52,14.80
2010,08,17,07,53,14.90
2010,08,17,07,54,15.00
2010,08,17,07,55,15.00
2010,08,17,07,56,15.00
2010,08,17,07,57,15.00
2010,08,17,07,58,15.00
2010,08,17,07,59,15.00
2010,08,17,08,00,15.10
2010,08,17,08,01,15.20
2010,08,17,08,02,15.20
2010,08,17,08,03,15.30
2010,08,17,08,04,15.30
2010,08,17,08,05,15.30
2010,08,17,08,06,15.30
2010,08,17,08,07,15.30
2010,08,17,08,08,15.40
2010,08,17,08,09,15.40
2010,08,17,08,10,15.40
2010,08,17,08,11,15.40
2010,08,17,08,12,15.40
2010,08,17,08,13,15.50
2010,08,17,08,14,15.60
2010,08,17,08,15,15.60
2010,08,17,08,16,15.70
2010,08,17,08,17,15.70
2010,08,17,08,18,15.80
2010,08,17,08,19,15.80
2010,08,17,08,20,15.90
2010,08,17,08,21,16.00
2010,08,17,08,22,16.00
2010,08,17,08,23,16.10
2010,08,17,08,24,16.10
2010,08,17,08,25,16.20
2010,08,17,08,26,16.20
2010,08,17,08,27,16.30
2010,08,17,08,28,16.40
2010,08,17,08,29,16.50
2010,08,17,08,30,16.60
2010,08,17,08,31,16.70
2010,08,17,08,32,16.80
2010,08,17,08,33,16.90
2010,08,17,08,34,17.00
2010,08,17,08,35,17.10
2010,08,17,08,36,17.20
2010,08,17,08,37,17.20
2010,08,17,08,38,17.30
2010,08,17,08,39,17.40
2010,08,17,08,40,17.50
2010,08,17,08,41,17.60
2010,08,17,08,42,17.70
2010,08,17,08,43,17.80
2010,08,17,08,44,17.90
2010,08,17,08,45,17.90
2010,08,17,08,46,18.00
2010,08,17,08,47,18.10
2010,08,17,08,48,18.10
2010,08,17,08,49,18.20
2010,08,17,08,50,18.30
2010,08,17,08,51,18.30
2010,08,17,08,52,18.40
2010,08,17,08,53,18.50
2010,08,17,08,54,18.60
2010,08,17,08,55,18.70
2010,08,17,08,56,18.80
2010,08,17,08,57,18.80
2010,08,17,08,58,18.90
2010,08,17,08,59,19.00
2010,08,17,09,00,19.10
2010,08,17,09,01,19.20
2010,08,17,09,02,19.30
2010,08,17,09,03,19.40
2010,08,17,09,04,19.50
2010,08,17,09,05,19.60
2010,08,17,09,06,19.60
2010,08,17,09,07,19.70
2010,08,17,09,08,19.70
2010,08,17,09,09,19.80
2010,08,17,09,10,19.80
2010,08,17,09,11,19.90
2010,08,17,09,12,19.90
2010,08,17,09,13,19.90
2010,08,17,09,14,19.90
2010,08,17,09,15,19.90
2010,08,17,09,16,19.90
2010,08,17,09,17,19.90
2010,08,17,09,18,19.90
2010,08,17,09,19,19.90
2010,08,17,09,20,19.90
2010,08,17,09,21,19.90
2010,08,17,09,22,19.90
2010,08,17,09,23,19.90
2010,08,17,09,24,19.80
2010,08,17,09,25,19.80
2010,08,17,09,26,19.80
2010,08,17,09,27,19.80
2010,08,17,09,28,19.70
2010,08,17,09,29,19.70
2010,08,17,09,30,19.70
2010,08,17,09,31,19.70
2010,08,17,09,32,19.70
2010,08,17,09,33,19.60
2010,08,17,09,34,19.50
2010,08,17,09,35,19.50
2010,08,17,09,36,19.40
2010,08,17,09,37,19.40
2010,08,17,09,38,19.40
2010,08,17,09,39,19.30
2010,08,17,09,40,19.30
2010,08,17,09,41,19.30
2010,08,17,09,42,19.30
2010,08,17,09,43,19.30
2010,08,17,09,44,19.30
2010,08,17,09,45,19.30
2010,08,17,09,46,19.30
2010,08,17,09,47,19.20
2010,08,17,09,48,19.20
2010,08,17,09,49,19.10
2010,08,17,09,50,19.10
2010,08,17,09,51,19.10
2010,08,17,09,52,19.10
2010,08,17,09,53,19.10
2010,08,17,09,54,19.10
2010,08,17,09,55,19.10
2010,08,17,09,56,19.10
2010,08,17,09,57,19.20
2010,08,17,09,58,19.20
2010,08,17,09,59,19.20
2010,08,17,10,00,19.20
2010,08,17,10,01,19.20
2010,08,17,10,02,19.30
2010,08,17,10,03,19.30
2010,08,17,10,04,19.30
2010,08,17,10,05,19.30
2010,08,17,10,06,19.40
2010,08,17,10,07,19.40
2010,08,17,10,08,19.40
2010,08,17,10,09,19.40
2010,08,17,10,10,19.40
2010,08,17,10,11,19.50
2010,08,17,10,12,19.50
2010,08,17,10,13,19.40
2010,08,17,10,14,19.50
2010,08,17,10,15,19.50
2010,08,17,10,16,19.60
2010,08,17,10,17,19.60
2010,08,17,10,18,19.70
2010,08,17,10,19,19.80
2010,08,17,10,20,19.90
2010,08,17,10,21,20.00
2010,08,17,10,22,20.10
2010,08,17,10,23,20.20
2010,08,17,10,24,20.30
2010,08,17,10,25,20.30
2010,08,17,10,26,20.30
2010,08,17,10,27,20.30
2010,08,17,10,28,20.30
2010,08,17,10,29,20.40
2010,08,17,10,30,20.50
2010,08,17,10,31,20.50
2010,08,17,10,32,20.60
2010,08,17,10,33,20.60
2010,08,17,10,34,20.70
2010,08,17,10,35,20.80
2010,08,17,10,36,20.80
2010,08,17,10,37,20.90
2010,08,17,10,38,20.90
2010,08,17,10,39,21.00
2010,08,17,10,40,21.10
2010,08,17,10,41,21.10
2010,08,17,10,42,21.10
2010,08,17,10,43,21.10
2010,08,17,10,44,21.10
2010,08,17,10,45,21.10
2010,08,17,10,46,21.20
2010,08,17,10,47,21.20
2010,08,17,10,48,21.30
2010,08,17,10,49,21.30
2010,08,17,10,50,21.40
2010,08,17,10,51,21.40
2010,08,17,10,52,21.40
2010,08,17,10,53,21.40
2010,08,17,10,54,21.40
2010,08,17,10,55,21.40
2010,08,17,10,56,21.40
2010,08,17,10,57,21.30
2010,08,17,10,58,21.30
2010,08,17,10,59,21.30
2010,08,17,11,00,21.30
2010,08,17,11,01,21.30
2010,08,17,11,02,21.30
2010,08,17,11,03,21.30
2010,08,17,11,04,21.30
2010,08,17,11,05,21.30
2010,08,17,11,06,21.40
2010,08,17,11,07,21.40
2010,08,17,11,08,21.50
2010,08,17,11,09,21.50
2010,08,17,11,10,21.50
2010,08,17,11,11,21.50
2010,08,17,11,12,21.50
2010,08,17,11,13,21.50
2010,08,17,11,14,21.50
2010,08,17,11,15,21.60
2010,08,17,11,16,21.60
2010,08,17,11,17,21.70
2010,08,17,11,18,21.70
2010,08,17,11,19,21.80
2010,08,17,11,20,21.80
2010,08,17,11,21,21.90
2010,08,17,11,22,21.90
2010,08,17,11,23,22.00
2010,08,17,11,24,22.10
2010,08,17,11,25,22.10
2010,08,17,11,26,22.20
2010,08,17,11,27,22.30
2010,08,17,11,28,22.30
2010,08,17,11,29,22.20
2010,08,17,11,30,22.10
2010,08,17,11,31,22.00
2010,08,17,11,32,22.00
2010,08,17,11,33,21.90
2010,08,17,11,34,21.90
2010,08,17,11,35,21.90
2010,08,17,11,36,21.90
2010,08,17,11,37,21.90
2010,08,17,11,38,22.00
2010,08,17,11,39,22.10
2010,08,17,11,40,22.10
2010,08,17,11,41,22.20
2010,08,17,11,42,22.20
2010,08,17,11,43,22.20
2010,08,17,11,44,22.30
2010,08,17,11,45,22.30
2010,08,17,11,46,22.40
2010,08,17,11,47,22.40
2010,08,17,11,48,22.40
2010,08,17,11,49,22.50
2010,08,17,11,50,22.50
2010,08,17,11,51,22.60
2010,08,17,11,52,22.60
2010,08,17,11,53,22.60
2010,08,17,11,54,22.60
2010,08,17,11,55,22.60
2010,08,17,11,56,22.60
2010,08,17,11,57,22.70
2010,08,17,11,58,22.70
2010,08,17,11,59,22.80
2010,08,17,12,00,22.80
2010,08,17,12,01,22.90
2010,08,17,12,02,22.90
2010,08,17,12,03,23.00
2010,08,17,12,04,23.00
2010,08,17,12,05,23.10
2010,08,17,12,06,23.10
2010,08,17,12,07,23.10
2010,08,17,12,08,23.10
2010,08,17,12,09,23.10
2010,08,17,12,10,23.00
2010,08,17,12,11,23.00
2010,08,17,12,12,23.00
2010,08,17,12,13,22.90
2010,08,17,12,14,23.00
2010,08,17,12,15,23.00
2010,08,17,12,16,23.10
2010,08,17,12,17,23.10
2010,08,17,12,18,23.20
2010,08,17,12,19,23.30
2010,08,17,12,20,23.30
2010,08,17,12,21,23.40
2010,08,17,12,22,23.40
2010,08,17,12,23,23.40
2010,08,17,12,24,23.40
2010,08,17,12,25,23.40
2010,08,17,12,26,23.40
2010,08,17,12,27,23.40
2010,08,17,12,28,23.40
2010,08,17,12,29,23.40
2010,08,17,12,30,23.40
2010,08,17,12,31,23.40
2010,08,17,12,32,23.40
2010,08,17,12,33,23.30
2010,08,17,12,34,23.30
2010,08,17,12,35,23.30
2010,08,17,12,36,23.30
2010,08,17,12,37,23.30
2010,08,17,12,38,23.30
2010,08,17,12,39,23.30
2010,08,17,12,40,23.40
2010,08,17,12,41,23.40
2010,08,17,12,42,23.30
2010,08,17,12,43,23.30
2010,08,17,12,44,23.30
2010,08,17,12,45,23.30
2010,08,17,12,46,23.30
2010,08,17,12,47,23.30
2010,08,17,12,48,23.30
2010,08,17,12,49,23.30
2010,08,17,12,50,23.20
2010,08,17,12,51,23.10
2010,08,17,12,52,23.10
2010,08,17,12,53,23.10
2010,08,17,12,54,23.10
2010,08,17,12,55,23.10
2010,08,17,12,56,23.10
2010,08,17,12,57,23.10
2010,08,17,12,58,23.00
2010,08,17,12,59,22.90
2010,08,17,13,00,22.90
2010,08,17,13,01,22.90
2010,08,17,13,02,22.90
2010,08,17,13,03,22.90
2010,08,17,13,04,23.00
2010,08,17,13,05,23.00
2010,08,17,13,06,23.10
2010,08,17,13,07,23.10
2010,08,17,13,08,23.10
2010,08,17,13,09,23.10
2010,08,17,13,10,23.10
2010,08,17,13,11,23.20
2010,08,17,13,12,23.20
2010,08,17,13,13,23.30
2010,08,17,13,14,23.30
2010,08,17,13,15,23.30
2010,08,17,13,16,23.40
2010,08,17,13,17,23.40
2010,08,17,13,18,23.50
2010,08,17,13,19,23.50
2010,08,17,13,20,23.50
2010,08,17,13,21,23.50
2010,08,17,13,22,23.50
2010,08,17,13,23,23.50
2010,08,17,13,24,23.50
2010,08,17,13,25,23.50
2010,08,17,13,26,23.60
2010,08,17,13,27,23.70
2010,08,17,13,28,23.70
2010,08,17,13,29,23.80
2010,08,17,13,30,23.90
2010,08,17,13,31,23.90
2010,08,17,13,32,24.00
2010,08,17,13,33,23.90
2010,08,17,13,34,24.00
2010,08,17,13,35,24.00
2010,08,17,13,36,24.10
2010,08,17,13,37,24.10
2010,08,17,13,38,24.20
2010,08,17,13,39,24.20
2010,08,17,13,40,24.30
2010,08,17,13,41,24.30
2010,08,17,13,42,24.30
2010,08,17,13,43,24.30
2010,08,17,13,44,24.20
2010,08,17,13,45,24.20
2010,08,17,13,46,24.10
2010,08,17,13,47,24.00
2010,08,17,13,48,23.90
2010,08,17,13,49,23.80
2010,08,17,13,50,23.70
2010,08,17,13,51,23.60
2010,08,17,13,52,23.60
2010,08,17,13,53,23.70
2010,08,17,13,54,23.70
2010,08,17,13,55,23.80
2010,08,17,13,56,23.90
2010,08,17,13,57,23.90
2010,08,17,13,58,23.80
2010,08,17,13,59,23.80
2010,08,17,14,00,23.80
2010,08,17,14,01,23.70
2010,08,17,14,02,23.70
2010,08,17,14,03,23.60
2010,08,17,14,04,23.60
2010,08,17,14,05,23.60
2010,08,17,14,06,23.60
2010,08,17,14,07,23.60
2010,08,17,14,08,23.60
2010,08,17,14,09,23.60
2010,08,17,14,10,23.70
2010,08,17,14,11,23.70
2010,08,17,14,12,23.80
2010,08,17,14,13,23.80
2010,08,17,14,14,23.80
2010,08,17,14,15,23.90
2010,08,17,14,16,23.90
2010,08,17,14,17,24.00
2010,08,17,14,18,24.00
2010,08,17,14,19,24.00
2010,08,17,14,20,24.00
2010,08,17,14,21,24.00
2010,08,17,14,22,24.10
2010,08,17,14,23,24.10
2010,08,17,14,24,24.10
2010,08,17,14,25,24.20
2010,08,17,14,26,24.20
2010,08,17,14,27,24.20
2010,08,17,14,28,24.30
2010,08,17,14,29,24.30
2010,08,17,14,30,24.40
2010,08,17,14,31,24.40
2010,08,17,14,32,24.40
2010,08,17,14,33,24.50
2010,08,17,14,34,24.50
2010,08,17,14,35,24.60
2010,08,17,14,36,24.60
2010,08,17,14,37,24.60
2010,08,17,14,38,24.60
2010,08,17,14,39,24.60
2010,08,17,14,40,24.60
2010,08,17,14,41,24.70
2010,08,17,14,42,24.70
2010,08,17,14,43,24.70
2010,08,17,14,44,24.70
2010,08,17,14,45,24.70
2010,08,17,14,46,24.70
2010,08,17,14,47,24.60
2010,08,17,14,48,24.60
2010,08,17,14,49,24.60
2010,08,17,14,50,24.60
2010,08,17,14,51,24.60
2010,08,17,14,52,24.60
2010,08,17,14,53,24.60
2010,08,17,14,54,24.60
2010,08,17,14,55,24.60
2010,08,17,14,56,24.50
2010,08,17,14,57,24.40
2010,08,17,14,58,24.40
2010,08,17,14,59,24.40
2010,08,17,15,00,24.30
2010,08,17,15,01,24.30
2010,08,17,15,02,24.40
2010,08,17,15,03,24.40
2010,08,17,15,04,24.40
2010,08,17,15,05,24.50
2010,08,17,15,06,24.50
2010,08,17,15,07,24.60
2010,08,17,15,08,24.60
2010,08,17,15,09,24.60
2010,08,17,15,10,24.60
2010,08,17,15,11,24.60
2010,08,17,15,12,24.60
2010,08,17,15,13,24.60
2010,08,17,15,14,24.60
2010,08,17,15,15,24.60
2010,08,17,15,16,24.60
2010,08,17,15,17,24.70
2010,08,17,15,18,24.70
2010,08,17,15,19,24.70
2010,08,17,15,20,24.80
2010,08,17,15,21,24.80
2010,08,17,15,22,24.80
2010,08,17,15,23,24.90
2010,08,17,15,24,24.90
2010,08,17,15,25,24.90
2010,08,17,15,26,24.90
2010,08,17,15,27,24.90
2010,08,17,15,28,24.80
2010,08,17,15,29,24.80
2010,08,17,15,30,24.80
2010,08,17,15,31,24.70
2010,08,17,15,32,24.70
2010,08,17,15,33,24.70
2010,08,17,15,34,24.70
2010,08,17,15,35,24.70
2010,08,17,15,36,24.60
2010,08,17,15,37,24.50
2010,08,17,15,38,24.50
2010,08,17,15,39,24.50
2010,08,17,15,40,24.50
2010,08,17,15,41,24.50
2010,08,17,15,42,24.60
2010,08,17,15,43,24.60
2010,08,17,15,44,24.60
2010,08,17,15,45,24.50
2010,08,17,15,46,24.40
2010,08,17,15,47,24.40
2010,08,17,15,48,24.40
2010,08,17,15,49,24.40
2010,08,17,15,50,24.30
2010,08,17,15,51,24.40
2010,08,17,15,52,24.40
2010,08,17,15,53,24.40
2010,08,17,15,54,24.50
2010,08,17,15,55,24.60
2010,08,17,15,56,24.60
2010,08,17,15,57,24.50
2010,08,17,15,58,24.50
2010,08,17,15,59,24.50
2010,08,17,16,00,24.60
2010,08,17,16,01,24.60
2010,08,17,16,02,24.60
2010,08,17,16,03,24.60
2010,08,17,16,04,24.70
2010,08,17,16,05,24.70
2010,08,17,16,06,24.70
2010,08,17,16,07,24.70
2010,08,17,16,08,24.80
2010,08,17,16,09,24.80
2010,08,17,16,10,24.80
2010,08,17,16,11,24.80
2010,08,17,16,12,24.80
2010,08,17,16,13,24.80
2010,08,17,16,14,24.80
2010,08,17,16,15,24.80
2010,08,17,16,16,24.80
2010,08,17,16,17,24.70
2010,08,17,16,18,24.60
2010,08,17,16,19,24.60
2010,08,17,16,20,24.60
2010,08,17,16,21,24.60
2010,08,17,16,22,24.60
2010,08,17,16,23,24.70
2010,08,17,16,24,24.70
2010,08,17,16,25,24.80
2010,08,17,16,26,24.80
2010,08,17,16,27,24.90
2010,08,17,16,28,24.90
2010,08,17,16,29,25.00
2010,08,17,16,30,25.10
2010,08,17,16,31,25.20
2010,08,17,16,32,25.30
2010,08,17,16,33,25.30
2010,08,17,16,34,25.30
2010,08,17,16,35,25.30
2010,08,17,16,36,25.30
2010,08,17,16,37,25.40
2010,08,17,16,38,25.40
2010,08,17,16,39,25.40
2010,08,17,16,40,25.50
2010,08,17,16,41,25.50
2010,08,17,16,42,25.50
2010,08,17,16,43,25.40
2010,08,17,16,44,25.40
2010,08,17,16,45,25.40
2010,08,17,16,46,25.30
2010,08,17,16,47,25.30
2010,08,17,16,48,25.20
2010,08,17,16,49,25.10
2010,08,17,16,50,24.90
2010,08,17,16,51,24.80
2010,08,17,16,52,24.70
2010,08,17,16,53,24.70
2010,08,17,16,54,24.70
2010,08,17,16,55,24.70
2010,08,17,16,56,24.70
2010,08,17,16,57,24.70
2010,08,17,16,58,24.70
2010,08,17,16,59,24.60
2010,08,17,17,00,24.60
2010,08,17,17,01,24.60
2010,08,17,17,02,24.60
2010,08,17,17,03,24.60
2010,08,17,17,04,24.60
2010,08,17,17,05,24.60
2010,08,17,17,06,24.60
2010,08,17,17,07,24.60
2010,08,17,17,08,24.50
2010,08,17,17,09,24.60
2010,08,17,17,10,24.60
2010,08,17,17,11,24.70
2010,08,17,17,12,24.80
2010,08,17,17,13,25.00
2010,08,17,17,14,25.20
2010,08,17,17,15,25.50
2010,08,17,17,16,25.80
2010,08,17,17,17,26.20
2010,08,17,17,18,26.50
2010,08,17,17,19,26.70